Regional Weather Roundup
Issued by NWS

Home | Current Version | Previous Version | Text Only | Print | Product List | Glossary On
Versions: 1 2 3 4 5 6 7 8 9 10 11 12 13 14 15 16 17 18 19 20 21 22 23 24 25 26 27 28 29 30 31 32 33 34 35 36 37 38 39 40 41 42 43 44 45 46 47 48 49 50
063
ASUS45 KPSR 311410
RWRAZ

ARIZONA HOURLY REGIONAL WEATHER ROUNDUP
NATIONAL WEATHER SERVICE PHOENIX AZ
700 AM MST TUE MAY 31 2016

NOTE: FAIR INDICATES FEW OR NO CLOUDS BELOW 12,000 FEET WITH NO
SIGNIFICANT WEATHER AND/OR OBSTRUCTIONS TO VISIBILITY.

AZZ001>003-036-311500-
NORTHWEST ARIZONA

CITY           SKY/WX    TMP DP  RH WIND       PRES   REMARKS
KINGMAN        MOSUNNY   70  28  21 CALM      29.93R
$$

AZZ004>008-015-016-018-311500-
NORTH CENTRAL ARIZONA

CITY           SKY/WX    TMP DP  RH WIND       PRES   REMARKS
GRAND CANYON   SUNNY     51  31  46 CALM      30.12R
WILLIAMS       SUNNY     50  30  46 S8        30.19R
PRESCOTT       SUNNY     56  28  34 S3        30.03R
FLAGSTAFF      SUNNY     48  29  47 CALM      30.13R
PAYSON         SUNNY     59  19  21 NW3       30.04R
PAGE           SUNNY     69  32  25 N5        29.99R
$$

AZZ009>014-017-311500-
NORTHEAST ARIZONA

CITY           SKY/WX    TMP DP  RH WIND       PRES   REMARKS
WINSLOW        SUNNY     55  21  26 CALM      30.03R
SAINT JOHNS    MOSUNNY   52  27  38 CALM      30.05R
WINDOW ROCK    SUNNY     53  25  33 N6        30.10S
SHOW LOW       PTSUNNY   55  19  24 CALM      30.10R
$$

AZZ023-311500-
GREATER PHOENIX AREA

CITY           SKY/WX    TMP DP  RH WIND       PRES   REMARKS
PHOENIX        MOSUNNY   74  24  15 E6        29.79R
BUCKEYE        SUNNY     72  27  18 CALM      29.82R
GLENDALE       MOSUNNY   72  28  20 CALM      29.82R
LUKE AFB       SUNNY     70  31  23 NW5       29.80R
DEER VALLEY    SUNNY     72  19  13 N7        29.81R
SCOTTSDALE     SUNNY     74  30  19 CALM      29.82R
MESA-FALCON    SUNNY    N/A N/A N/A N7        29.78S
CHANDLER       SUNNY     72  39  30 NE7       29.81R
$$

AZZ027-028-311500-
SOUTHWEST MARICOPA COUNTY AND PINAL COUNTY

CITY           SKY/WX    TMP DP  RH WIND       PRES   REMARKS
CASA GRANDE    SUNNY     70  28  21 CALM      29.83R
GILA BEND      SUNNY     74  28  17 N3        29.78R
$$

AZZ503-504-507>509-311500-
SOUTHEAST ARIZONA

CITY           SKY/WX    TMP DP  RH WIND       PRES   REMARKS
TUCSON         SUNNY     67  23  19 S7        29.91R
DAVIS-MONTHAN  SUNNY     68  20  16 SE3       29.89R
RYAN FIELD     SUNNY     63  27  25 CALM      29.90R
NOGALES        SUNNY     61  25  25 CALM      29.95R
SIERRA VISTA   SUNNY     65  29  26 VRB1      30.00R
DOUGLAS        SUNNY     66  37  34 S7        29.98R
SAFFORD        SUNNY     65  20  17 E6        29.91R
$$

AZZ020-021-025-026-031-311500-
SOUTHWEST ARIZONA

CITY           SKY/WX    TMP DP  RH WIND       PRES   REMARKS
YUMA           MOSUNNY   73  54  51 SE13      29.74R
$$

CAZ031-033-041-043-047-048-061-311500-
SOUTHERN CALIFORNIA

CITY           SKY/WX    TMP DP  RH WIND       PRES   REMARKS
DOWNTOWN L.A.  CLOUDY    61  56  83 CALM      29.88R HAZE
L.A. AIRPORT   CLOUDY    61  56  83 SE3       29.89R FOG
SAN DIEGO      CLOUDY    64  56  75 CALM      29.90S
BURBANK        CLOUDY    57  55  93 VRB3      29.88R FOG
ONTARIO        MOSUNNY   57  54  89 W3        29.89R FOG
RIVERSIDE      SUNNY     58  54  86 W5        29.89R FOG
PALM SPRINGS   MOSUNNY   77  52  41 SE3       29.74R
EL CENTRO NAS  MOSUNNY   74  46  36 S5        29.73R
IMPERIAL       SUNNY     73  46  38 CALM      29.71R
BLYTHE         SUNNY     73  40  30 N5        29.75R
NEEDLES        SUNNY     80  29  15 N5        29.77R
$$

NVZ020-UTZ003-311500-
SOUTHERN NEVADA-UTAH

CITY           SKY/WX    TMP DP  RH WIND       PRES   REMARKS
LAS VEGAS      MOSUNNY   79  34  19 CALM      29.84R
SALT LAKE CITY MOSUNNY   60  40  47 SE7       30.09R
$$

NMZ009-TXZ055-311500-
NEW MEXICO-WEST TEXAS

CITY           SKY/WX    TMP DP  RH WIND       PRES   REMARKS
ALBUQUERQUE    MOSUNNY   66  40  38 SW8       30.04S
EL PASO        MOSUNNY   66  59  78 S8        29.98R
$$


........................KEY........................
SKY/WX - SKY CONDITION/WEATHER
TMP    - TEMPERATURE IN FAHRENHEIT
DP     - DEW POINT IN FAHRENHEIT
RH     - RELATIVE HUMIDITY IN PERCENT
WIND   - DIRECTION AND SPEED IN MILES PER HOUR (MPH)
VRB    - VARIABLE WIND DIRECTION
PRES   - MEAN SEA LEVEL PRESSURE IN INCHES OF MERCURY
         F - FALLING PRESSURE   R - RISING PRESSURE
         S - STEADY PRESSURE
VSB    - VISIBILITY IN MILES
HX     - HEAT INDEX IN FAHRENHEIT
WCI    - WIND CHILL INDEX IN FAHRENHEIT
TC     - TEMPERATURE IN CELSIUS WHICH IS ALSO KNOWN AS
         TEMPERATURE IN CENTIGRADE
AFB    - AIR FORCE BASE
         LUKE AFB IS LUKE AIR FORCE BASE
         DAVIS-MONTHAN IS DAVIS-MONTHAN AIR FORCE BASE
NAS    - NAVAL AIR STATION
         EL CENTRO NAS IS EL CENTRO NAVAL AIR STATION
N/A    - NOT AVAILABLE





USA.gov is the U.S. government's official web portal to all federal, state and local government web resources and services.